FW6531 Weather Reports


time (UTC)temp
C
wind
direction
speed
KPH
gust
KPH
rain 1hr
cm
rain 24hr
cm
rain mn
cm
humidity
%
barometer
mb
20260506114058 12 217 3.2 11.3 0.00 0.00 0.00 87 1009.0
20260506113558 12 228 4.8 9.7 0.00 0.00 0.00 87 1009.0
20260506113059 11 184 1.6 11.3 0.00 0.00 0.00 88 1008.9
20260506112557 11 180 4.8 9.7 0.00 0.00 0.00 88 1008.8
20260506112057 11 196 3.2 9.7 0.00 0.00 0.00 88 1009.0
20260506111557 11 200 3.2 12.9 0.00 0.00 0.00 89 1009.0
20260506111054 11 221 3.2 12.9 0.00 0.00 0.00 88 1008.8
20260506110555 11 192 6.4 19.3 0.00 0.00 0.00 89 1008.8
20260506110100 11 201 6.4 14.5 0.00 0.00 0.00 89 1008.9
20260506105554 11 238 6.4 16.1 0.00 0.00 0.00 88 1008.9
20260506105053 11 219 8.0 14.5 0.00 0.00 0.00 88 1008.7
20260506104556 11 152 6.4 16.1 0.00 0.00 0.00 88 1008.9
20260506104051 11 207 6.4 16.1 0.00 0.00 0.00 89 1008.7
20260506103551 10 189 6.4 17.7 0.00 0.00 0.00 89 1008.6
20260506103057 10 181 6.4 16.1 0.00 0.00 0.00 88 1008.5
20260506102550 10 246 6.4 19.3 0.00 0.00 0.00 88 1008.7
20260506102050 10 205 8.0 20.9 0.00 0.00 0.00 89 1008.7
20260506101558 10 223 8.0 20.9 0.00 0.00 0.00 89 1008.4
20260506101048 10 178 8.0 20.9 0.00 0.00 0.00 89 1008.5
20260506100547 10 173 6.4 20.9 0.00 0.00 0.00 89 1008.5
20260506095545 10 197 6.4 19.3 0.00 0.00 0.00 89 1008.5
20260506095045 10 202 8.0 19.3 0.00 0.00 0.00 88 1008.4
20260506094543 10 230 6.4 20.9 0.00 0.00 0.00 88 1008.3
20260506094040 10 188 6.4 17.7 0.00 0.00 0.00 88 1008.2
20260506093539 10 207 6.4 17.7 0.00 0.00 0.00 88 1008.4
20260506093045 10 229 6.4 19.3 0.00 0.00 0.00 87 1008.4
20260506092539 10 167 6.4 20.9 0.00 0.00 0.00 87 1008.3
20260506092039 10 209 8.0 20.9 0.00 0.00 0.00 87 1008.3
20260506091540 10 198 9.7 20.9 0.00 0.00 0.00 87 1008.3
20260506091041 10 174 9.7 20.9 0.00 0.00 0.00 86 1008.3
20260506090537 10 178 11.3 25.7 0.00 0.00 0.00 86 1008.3
20260506090036 10 239 12.9 25.7 0.00 0.00 0.00 86 1008.3
20260506085535 11 204 6.4 30.6 0.00 0.00 0.00 86 1008.1
20260506085035 11 175 11.3 25.7 0.00 0.00 0.00 86 1008.1
20260506084545 11 227 11.3 27.4 0.00 0.00 0.00 86 1008.2
20260506084035 11 219 8.0 27.4 0.00 0.00 0.00 86 1008.0
20260506083535 11 169 12.9 24.1 0.00 0.00 0.00 86 1008.0
20260506083035 11 246 11.3 17.7 0.00 0.00 0.00 86 1008.0
20260506082534 11 157 12.9 24.1 0.00 0.00 0.00 85 1008.0
20260506082034 11 189 9.7 24.1 0.00 0.00 0.00 85 1008.0
20260506081541 11 158 9.7 25.7 0.00 0.00 0.00 85 1008.2
20260506081034 11 156 9.7 25.7 0.00 0.00 0.00 85 1008.1
20260506080533 11 180 11.3 25.7 0.00 0.00 0.00 85 1008.0
20260506073040 10 187 9.7 24.1 0.00 0.00 0.00 84 1007.9
20260506072531 10 188 11.3 29.0 0.00 0.00 0.00 85 1007.9
20260506072031 10 153 11.3 29.0 0.00 0.00 0.00 85 1007.8
20260506071530 10 214 9.7 24.1 0.00 0.00 0.00 85 1007.8
20260506071029 10 182 8.0 24.1 0.00 0.00 0.00 84 1007.8
20260506070529 10 197 11.3 24.1 0.00 0.00 0.00 84 1007.7
20260506062022 11 178 11.3 24.1 0.00 0.00 0.00 83 1007.4
20260506061522 11 193 14.5 25.7 0.00 0.00 0.00 84 1007.4
20260506061021 10 213 8.0 22.5 0.00 0.00 0.00 83 1007.5
20260506060520 10 176 9.7 17.7 0.00 0.00 0.00 83 1007.7
20260506051013 11 273 9.7 24.1 0.00 0.00 0.00 82 1007.4
20260506050513 11 136 12.9 25.7 0.00 0.00 0.00 82 1007.6
20260506045011 11 200 11.3 22.5 0.00 0.00 0.00 82 1007.7
20260506044524 11 193 8.0 19.3 0.00 0.00 0.00 81 1007.7
20260506044009 11 173 8.0 16.1 0.00 0.00 0.00 81 1007.7
20260506043509 11 202 9.7 29.0 0.00 0.00 0.00 81 1007.7
20260506043008 11 165 9.7 29.0 0.00 0.00 0.00 80 1007.8
20260506042506 11 176 9.7 30.6 0.00 0.00 0.00 80 1007.7
20260506042007 11 190 9.7 30.6 0.00 0.00 0.00 80 1007.7
20260506041504 11 194 11.3 30.6 0.00 0.00 0.00 80 1007.6
20260506041007 11 201 9.7 19.3 0.00 0.00 0.00 80 1007.7
20260506040502 11 179 11.3 24.1 0.00 0.00 0.00 80 1007.2
20260506040001 12 166 12.9 29.0 0.00 0.00 0.00 80 1007.4
20260506035501 11 138 14.5 29.0 0.00 0.00 0.00 80 1007.3
20260506035001 12 159 8.0 27.4 0.00 0.00 0.00 80 1007.5
20260506034502 12 187 11.3 27.4 0.00 0.00 0.00 80 1007.4
20260506034100 12 254 8.0 22.5 0.00 0.00 0.00 80 1007.3
20260506034001 12 146 9.7 22.5 0.00 0.00 0.00 80 1007.2
20260506033501 12 160 12.9 22.5 0.00 0.00 0.00 81 1007.2
20260506033000 12 169 9.7 19.3 0.00 0.00 0.00 81 1007.1
20260506032602 11 174 9.7 19.3 0.00 0.00 0.00 81 1007.1
20260506032502 11 200 9.7 19.3 0.00 0.00 0.00 81 1007.1
20260506032100 11 130 9.7 17.7 0.00 0.00 0.00 80 1007.1
20260506031606 11 157 9.7 17.7 0.00 0.00 0.00 80 1007.2
20260506031100 12 157 9.7 17.7 0.00 0.00 0.00 80 1007.3
20260506030559 12 138 6.4 16.1 0.00 0.00 0.00 79 1007.1
20260506030100 12 211 6.4 17.7 0.00 0.00 0.00 79 1007.2
20260506025558 12 193 9.7 17.7 0.00 0.00 0.00 78 1007.3
20260506025201 12 204 8.0 14.5 0.00 0.00 0.00 78 1007.3
20260506024559 12 180 6.4 17.7 0.00 0.00 0.00 77 1007.3
20260506024058 12 165 6.4 17.7 0.00 0.00 0.00 76 1007.3
20260506023557 12 187 9.7 19.3 0.00 0.00 0.00 76 1007.3
20260506023111 12 191 6.4 20.9 0.00 0.00 0.00 76 1007.3
20260506022557 13 182 9.7 25.7 0.00 0.00 0.00 75 1007.3
20260506022159 13 192 11.3 25.7 0.00 0.00 0.00 75 1007.2
20260506021557 13 194 8.0 17.7 0.00 0.00 0.00 75 1007.2
20260506021057 13 164 8.0 17.7 0.00 0.00 0.00 75 1007.4
20260506020556 13 188 9.7 17.7 0.00 0.00 0.00 74 1007.5
20260506020057 13 212 6.4 19.3 0.00 0.00 0.00 74 1007.4
20260506015555 13 219 8.0 17.7 0.00 0.00 0.00 73 1007.6
20260506015056 13 177 8.0 22.5 0.00 0.00 0.00 73 1007.4
20260506014556 13 234 8.0 22.5 0.00 0.00 0.00 73 1007.5
20260506014055 13 213 8.0 16.1 0.00 0.00 0.00 73 1007.5
20260506013555 14 159 6.4 20.9 0.00 0.00 0.00 72 1007.6
20260506013058 14 186 8.0 20.9 0.00 0.00 0.00 72 1007.4
20260506012556 14 202 4.8 17.7 0.00 0.00 0.00 72 1007.4
20260506012055 14 190 8.0 20.9 0.00 0.00 0.00 71 1007.4
20260506011617 15 185 8.0 20.9 0.00 0.00 0.00 71 1007.2
20260506011054 15 163 8.0 16.1 0.00 0.00 0.00 71 1007.0
20260506010555 15 196 9.7 20.9 0.00 0.00 0.00 70 1007.0
20260506005554 15 153 6.4 22.5 0.00 0.00 0.00 70 1007.0
20260506005053 15 187 12.9 24.1 0.00 0.00 0.00 70 1007.2
20260506004621 15 190 9.7 24.1 0.00 0.00 0.00 70 1007.0
20260506004053 15 213 9.7 24.1 0.00 0.00 0.00 71 1007.3
20260506003553 15 160 8.0 24.1 0.00 0.00 0.00 71 1006.8
20260506003153 15 228 9.7 24.1 0.00 0.00 0.00 71 1006.4
20260506002552 15 131 11.3 24.1 0.00 0.00 0.00 71 1006.6
20260506002051 15 157 9.7 19.3 0.00 0.00 0.00 71 1006.6
20260506001556 15 192 8.0 19.3 0.00 0.00 0.00 71 1006.3
20260506001052 15 165 9.7 19.3 0.00 0.00 0.00 71 1006.1
20260506000552 15 202 11.3 19.3 0.00 0.00 0.00 71 1006.1
20260506000052 15 159 8.0 17.7 0.00 0.00 0.00 70 1006.0
20260505235550 15 146 6.4 20.9 0.00 0.00 0.00 69 1005.9
20260505235051 16 159 8.0 20.9 0.00 0.00 0.00 71 1005.8
20260505234614 16 156 3.2 11.3 0.00 0.00 0.00 71 1006.0
20260505234051 16 130 4.8 11.3 0.00 0.00 0.00 71 1006.0
20260505233550 15 217 4.8 14.5 0.00 0.00 0.00 71 1006.1
20260505233050 15 159 4.8 16.1 0.00 0.00 0.00 72 1006.1
20260505232550 15 222 6.4 20.9 0.00 0.00 0.00 72 1005.9
20260505232050 15 167 6.4 22.5 0.00 0.00 0.00 72 1005.8
20260505231550 14 214 11.3 27.4 0.00 0.00 0.00 73 1006.0
20260505231053 14 284 12.9 37.0 0.00 0.00 0.00 73 1006.0
20260505230549 13 182 12.9 37.0 0.00 0.00 0.00 74 1006.1
20260505230049 13 141 11.3 29.0 0.00 0.00 0.00 74 1004.6
20260505225548 13 196 14.5 35.4 0.00 0.00 0.00 74 1004.6
20260505225047 13 264 16.1 35.4 0.00 0.00 0.00 73 1004.3
20260505224549 13 179 14.5 32.2 0.00 0.00 0.00 74 1004.1
20260505224048 13 221 16.1 29.0 0.00 0.00 0.00 74 1004.2
20260505223547 13 254 12.9 32.2 0.00 0.00 0.00 74 1004.1
20260505223049 13 174 16.1 35.4 0.00 0.00 0.00 74 1004.1
20260505222648 13 214 8.0 35.4 0.00 0.00 0.00 74 1004.0
20260505222048 13 168 14.5 33.8 0.00 0.00 0.00 74 1003.9
20260505221547 13 232 11.3 25.7 0.00 0.00 0.00 74 1003.8
20260505221047 13 240 12.9 35.4 0.00 0.00 0.00 74 1003.6
20260505220546 13 176 20.9 35.4 0.00 0.00 0.00 74 1003.7
20260505220059 13 184 12.9 35.4 0.00 0.00 0.00 75 1003.7
20260505215546 13 227 11.3 35.4 0.00 0.00 0.00 75 1003.7
20260505215046 13 106 8.0 33.8 0.00 0.00 0.00 75 1003.7
20260505214546 13 152 9.7 37.0 0.00 0.00 0.00 75 1003.6
20260505214046 13 211 14.5 38.6 0.00 0.00 0.00 75 1003.7
20260505213544 13 163 12.9 32.2 0.00 0.00 0.00 75 1003.5
20260505213045 13 222 12.9 29.0 0.00 0.00 0.00 75 1003.6
20260505212547 13 98 11.3 30.6 0.00 0.00 0.00 75 1003.4
20260505212045 13 213 11.3 30.6 0.00 0.00 0.00 74 1003.3
20260505211550 13 223 16.1 29.0 0.00 0.00 0.00 74 1003.3
20260505211045 13 166 12.9 35.4 0.00 0.00 0.00 74 1003.4
20260505210545 14 177 16.1 30.6 0.00 0.00 0.00 74 1003.4
20260505210043 14 201 12.9 38.6 0.00 0.00 0.00 73 1003.4
20260505205543 14 196 17.7 41.8 0.00 0.00 0.00 73 1003.4
20260505205043 14 191 14.5 41.8 0.00 0.00 0.00 73 1003.2
20260505204545 14 137 17.7 33.8 0.00 0.00 0.00 73 1003.3
20260505204042 14 197 16.1 35.4 0.00 0.00 0.00 74 1003.4
20260505203542 14 196 9.7 38.6 0.00 0.00 0.00 74 1003.5
20260505203041 14 173 16.1 38.6 0.00 0.00 0.00 74 1003.5
20260505202540 14 124 16.1 35.4 0.00 0.00 0.00 73 1003.6
20260505202043 14 205 11.3 38.6 0.00 0.00 0.00 74 1003.6
20260505201541 14 134 16.1 38.6 0.00 0.00 0.00 73 1003.6
20260505201040 14 198 8.0 33.8 0.00 0.00 0.00 74 1003.7
20260505200539 14 130 9.7 35.4 0.00 0.00 0.00 75 1003.7
20260505200039 14 174 19.3 35.4 0.00 0.00 0.00 74 1003.7
20260505195538 14 205 16.1 45.1 0.00 0.00 0.00 74 1003.7
20260505195038 14 193 14.5 45.1 0.00 0.00 0.00 75 1003.9
20260505194542 14 190 14.5 45.1 0.00 0.00 0.00 74 1004.0
20260505194037 14 171 12.9 30.6 0.00 0.00 0.00 74 1004.0
20260505193538 14 134 11.3 37.0 0.00 0.00 0.00 75 1004.2
20260505193042 14 158 16.1 48.3 0.00 0.00 0.00 74 1004.1
20260505192535 14 180 19.3 48.3 0.00 0.00 0.00 75 1004.1
20260505192035 14 190 16.1 40.2 0.00 0.00 0.00 74 1004.2
20260505191549 14 190 16.1 37.0 0.00 0.00 0.00 73 1004.5
20260505191037 15 193 17.7 29.0 0.00 0.00 0.00 72 1004.7
20260505190533 15 279 11.3 29.0 0.00 0.00 0.00 73 1004.7
20260505190033 15 230 14.5 30.6 0.00 0.00 0.00 73 1004.6
20260505185531 15 189 11.3 29.0 0.00 0.00 0.00 72 1004.7
20260505185034 15 182 11.3 24.1 0.00 0.00 0.00 72 1004.9
20260505184532 15 144 8.0 29.0 0.00 0.00 0.00 72 1004.9
20260505184032 15 135 11.3 35.4 0.00 0.00 0.00 71 1004.8
20260505183531 15 108 14.5 35.4 0.00 0.00 0.00 71 1004.9
20260505183031 15 134 14.5 35.4 0.00 0.00 0.00 71 1004.9
20260505182534 15 150 14.5 41.8 0.00 0.00 0.00 73 1004.9
20260505182030 15 159 16.1 41.8 0.00 0.00 0.00 71 1005.1
20260505181531 15 147 14.5 38.6 0.00 0.00 0.00 72 1005.1
20260505181030 15 198 16.1 38.6 0.00 0.00 0.00 71 1005.1
20260505180529 15 173 14.5 37.0 0.00 0.00 0.00 72 1005.2
20260505180042 15 141 17.7 37.0 0.00 0.00 0.00 72 1005.3
20260505175527 15 165 16.1 33.8 0.00 0.00 0.00 71 1005.3
20260505175031 15 149 17.7 35.4 0.00 0.00 0.00 71 1005.2
20260505174536 15 168 12.9 35.4 0.00 0.00 0.00 71 1005.3
20260505174027 16 192 14.5 35.4 0.00 0.00 0.00 69 1005.5
20260505173527 16 155 16.1 35.4 0.00 0.00 0.00 69 1005.5
20260505173026 16 130 12.9 37.0 0.00 0.00 0.00 70 1005.6
20260505172529 16 177 17.7 37.0 0.00 0.00 0.00 71 1005.7
20260505172025 15 107 16.1 32.2 0.00 0.00 0.00 70 1005.8
20260505171531 15 143 14.5 25.7 0.00 0.00 0.00 70 1005.7
20260505171024 15 180 11.3 30.6 0.00 0.00 0.00 71 1005.8
20260505170523 15 154 12.9 29.0 0.00 0.00 0.00 74 1006.1
20260505170027 15 161 14.5 30.6 0.00 0.00 0.00 71 1006.1
20260505165526 15 138 9.7 30.6 0.00 0.00 0.00 72 1006.2
20260505165021 15 221 14.5 24.1 0.00 0.00 0.00 72 1006.0
20260505164521 15 208 11.3 30.6 0.00 0.00 0.00 72 1006.2
20260505164021 15 123 16.1 35.4 0.00 0.00 0.00 71 1006.4
20260505163520 15 145 14.5 35.4 0.00 0.00 0.00 71 1006.5
20260505163021 15 189 16.1 27.4 0.00 0.00 0.00 70 1006.5
20260505162519 16 165 12.9 37.0 0.00 0.00 0.00 69 1006.8
20260505162018 16 172 14.5 37.0 0.00 0.00 0.00 70 1006.6
20260505161518 16 177 14.5 24.1 0.00 0.00 0.00 69 1006.7
20260505161017 16 189 16.1 29.0 0.00 0.00 0.00 66 1006.9
20260505160517 17 114 12.9 25.7 0.00 0.00 0.00 66 1006.9
20260505153008 15 211 9.7 24.1 0.00 0.00 0.00 72 1007.5
20260505152508 15 166 6.4 20.9 0.00 0.00 0.00 74 1007.7
20260505152007 15 163 9.7 25.7 0.00 0.00 0.00 75 1007.8
20260505151506 14 172 8.0 30.6 0.00 0.00 0.00 79 1007.8
20260505151005 13 190 14.5 30.6 0.00 0.00 0.00 78 1007.7
20260505150505 12 171 12.9 29.0 0.00 0.00 0.00 80 1007.8
20260505140503 15 161 9.7 22.5 0.00 0.00 0.00 71 1007.6
20260505124549 13 212 8.0 19.3 0.00 0.00 0.00 76 1007.3
20260505124047 12 140 9.7 25.7 0.00 0.00 0.00 76 1007.4
20260505123545 12 225 6.4 25.7 0.00 0.00 0.00 76 1007.5
20260505123102 12 194 8.0 22.5 0.00 0.00 0.00 76 1007.3
20260505122543 12 192 4.8 19.3 0.00 0.00 0.00 77 1007.3
20260505122042 12 205 4.8 19.3 0.00 0.00 0.00 77 1007.2
20260505121541 12 178 12.9 19.3 0.00 0.00 0.00 77 1007.3
20260505121041 12 239 9.7 19.3 0.00 0.00 0.00 77 1007.6
20260505120540 12 203 3.2 19.3 0.00 0.00 0.00 78 1007.7
20260505120040 12 209 8.0 19.3 0.00 0.00 0.00 78 1007.7
20260505115538 11 202 8.0 17.7 0.00 0.00 0.00 79 1007.8
20260505115038 11 182 6.4 16.1 0.00 0.00 0.00 80 1007.8
20260505114548 11 170 8.0 22.5 0.00 0.00 0.00 81 1008.1